Regional Weather Roundup
Issued by NWS Sioux Falls, SD

Home | Current Version | Previous Version | Graphics & Text | Print | Product List | Glossary On
Versions: 1 2 3 4 5 6 7 8 9 10 11 12 13 14 15 16 17 18 19 20 21 22 23 24 25 26 27 28 29 30 31 32 33 34 35 36 37 38 39 40 41 42 43 44 45 46 47 48 49 50
320
ASUS43 KFSD 302010
RWRFSD

WEATHER ROUNDUP FOR SE SOUTH DAKOTA/SW MINNESOTA/NW IOWA
NATIONAL WEATHER SERVICE SIOUX FALLS SD
300 PM CDT SAT JUL 30 2016

NOTE: "FAIR" INDICATES FEW OR NO CLOUDS BELOW 12,000 FEET WITH NO
SIGNIFICANT WEATHER AND OR OBSTRUCTIONS TO VISIBILITY.


SDZ038>040-050-052>070-302100-
SOUTHEAST SOUTH DAKOTA

CITY           SKY/WX    TMP DP  RH WIND       PRES   REMARKS
BROOKINGS      MOSUNNY   78  61  55 S9        29.98F
CHAMBERLAIN    SUNNY     86  65  49 SE9G16    29.91F
HURON          SUNNY     84  57  39 S13G21    29.92F
MADISON        FAIR      77  59  53 S12       29.99F
MITCHELL       SUNNY     84  60  44 SE14G23   29.94F
SIOUX FALLS    MOSUNNY   80  55  42 VRB6G17   29.98F
WINNER         FAIR      86  64  47 SE13      29.91F
YANKTON        PTSUNNY   81  61  50 S15       29.95S
$$

MNZ071-072-080-081-089-090-097-098-302100-
SOUTHWEST MINNESOTA

CITY           SKY/WX    TMP DP  RH WIND       PRES   REMARKS
FAIRMONT       PTSUNNY   75  59  57 CALM      30.01S
JACKSON        MOSUNNY   77  55  47 CALM      30.02F
LUVERNE        SUNNY     77  54  44 SE8       30.00F
MARSHALL       MOSUNNY   78  58  49 S7        30.00F
MONTEVIDEO     SUNNY     79  55  44 SE7       30.01F
REDWOOD FALLS  MOSUNNY   79  53  40 VRB5      29.99F
TRACY          SUNNY     78  60  52 E3        30.01S
WINDOM         SUNNY     79  54  41 S6        30.02S
WORTHINGTON    MOSUNNY   77  58  51 SE7       30.02F
$$

IAZ001>003-012>014-020>022-031-032-NEZ013-014-SDZ071-302100-
NORTHWEST IOWA

CITY           SKY/WX    TMP DP  RH WIND       PRES   REMARKS
CHEROKEE       PTSUNNY   80  60  50 SE5       30.00S
DENISON        SUNNY     77  66  69 VRB5      29.98F
ESTHERVILLE    MOSUNNY   77  62  59 S5        30.01F
LE MARS        MOSUNNY   81  59  47 SE9       30.00S
SHELDON        MOSUNNY   77  61  57 SE8       29.99F
SIOUX CITY     PTSUNNY   79  62  56 S9        29.98F
SPENCER        MOSUNNY   79  59  50 S10       30.01F
STORM LAKE       N/A     79  64  61 SE6       30.01F
$$

ABBREVIATIONS USED IN REMARKS
   TC - TEMPERATURE IN CELSIUS
  WCI - WIND CHILL INDEX
   HX - HEAT INDEX
  VSB - VISIBILITY





USA.gov is the U.S. government's official web portal to all federal, state and local government web resources and services.